Back to catalog

METEOR 1-17 DEB

AlivePO
NORAD 57726·DEBRIS·🇷🇺 Russia

Launched Apr 24, 1974 from Plesetsk Cosmodrome

Loading…

Next Passes (next 24 hours)

TLE

FreshSource: Space-Track

Epoch: Sep 13, 2026, 04:19 UTC

1 57726U 74025M   26256.18030495  .00002449  00000-0  10754-2 0  9994
2 57726  81.2118 197.3745 0019910  39.5975 320.6653 14.23218003157567

Track METEOR 1-17 DEB in real time with AllMySat

Download on the App Store